Regional Weather Roundup
Issued by NWS

Home | Current Version | Previous Version | Text Only | Print | Product List | Glossary On
Versions: 1 2 3 4 5 6 7 8 9 10 11 12 13 14 15 16 17 18 19 20 21 22 23 24 25 26 27 28 29 30 31 32 33 34 35 36 37 38 39 40 41 42 43 44 45 46 47 48 49 50
000
ASUS42 KFFC 300603
RWRGA
WEATHER ROUNDUP FOR GEORGIA
NATIONAL WEATHER SERVICE PEACHTREE CITY GA
200 AM EDT TUE JUN 30 2015

NOTE: "FAIR" INDICATES FEW OR NO CLOUDS BELOW 12,000 FEET WITH NO
SIGNIFICANT WEATHER AND/OR OBSTRUCTIONS TO VISIBILITY.

* = USE WITH CAUTION. THE STATIONS MARKED WITH AN ASTERISK MAY NOT
REPORT WEATHER SUCH AS PRECIPITATION, FOG, OR THUNDER AND ARE NOT
QUALITY CONTROLLED BY NWS.

THE REMARK "TC" DENOTES TEMPERATURE READING IN DEGREES CELSIUS.

GAZ001>058-300700-
NORTH GEORGIA

CITY           SKY/WX    TMP DP  RH WIND       PRES   REMARKS
ATLANTA        MOCLDY    73  64  73 SW5       30.02S
6HR MIN TEMP:  73; 6HR MAX TEMP:  82;

ATHENS         CLEAR     72  63  73 W3        30.00F
6HR MIN TEMP:  72; 6HR MAX TEMP:  82;

CHAMBLEE       MOCLDY    76  64  66 SW9       30.01F
6HR MIN TEMP:  74; 6HR MAX TEMP:  83;

PEACHTREE CITY CLEAR     69  66  90 CALM      30.03R
6HR MIN TEMP:  69; 6HR MAX TEMP:  81;

ROME           MOCLDY    75  64  68 S5        29.98S
6HR MIN TEMP:  72; 6HR MAX TEMP:  85;

WEST ATLANTA   MOCLDY    75  65  70 S5        30.01S
6HR MIN TEMP:  72; 6HR MAX TEMP:  84;

GAINESVILLE    CLOUDY    75  64  68 SW8       30.03F
6HR MIN TEMP:  73; 6HR MAX TEMP:  81;

CARTERSVILLE   CLOUDY    74  65  73 CALM      30.00S
6HR MIN TEMP:  73; 6HR MAX TEMP:  79;



CITY           SKY/WX    TMP DP  RH WIND       PRES   REMARKS
DALTON*        MOCLDY    72  66  83 CALM      29.98F
MARIETTA       CLOUDY    75  67  75 SW7       30.01F
BLAIRSVILLE*     N/A     68  56  65 CALM      30.04F
$$

GAZ059>098-102>109-300700-
CENTRAL GEORGIA

CITY           SKY/WX    TMP DP  RH WIND       PRES   REMARKS
AUGUSTA-BUSH   CLEAR     73  63  70 SW8       29.98S
6HR MIN TEMP:  67; 6HR MAX TEMP:  87;

AUGUSTA-DANIEL CLEAR     76  62  62 CALM      30.00S
6HR MIN TEMP:  76; 6HR MAX TEMP:  87;

COLUMBUS       CLEAR     75  68  78 W5        30.00S
6HR MIN TEMP:  75; 6HR MAX TEMP:  84;

MACON          CLEAR     74  65  73 SW5       30.01S
6HR MIN TEMP:  70; 6HR MAX TEMP:  85;

ROBINS AFB     CLEAR     72  65  79 SW5       30.00F


CITY           SKY/WX    TMP DP  RH WIND       PRES   REMARKS
LAGRANGE*      CLEAR     75  72  89 SW3       30.01S
SYLVANIA*      CLEAR     72  70  94 CALM      30.01F
MILLEDGEVILLE* CLEAR     70  64  83 CALM      30.00S
$$

GAZ099>101-110>166-300700-
SOUTH GEORGIA

CITY           SKY/WX    TMP DP  RH WIND       PRES   REMARKS
SAVANNAH       PTCLDY    74  67  78 SW8       30.02S
6HR MIN TEMP:  74; 6HR MAX TEMP:  83;

VALDOSTA       CLEAR     72  71  97 S3        30.05S
6HR MIN TEMP:  72; 6HR MAX TEMP:  80;

ALMA           CLEAR     72  66  81 CALM      30.03S
6HR MIN TEMP:  69; 6HR MAX TEMP:  83;

ST SIMONS      PTCLDY    77  74  90 SW6       30.02S
6HR MIN TEMP:  76; 6HR MAX TEMP:  80;

FT STEWART     PTCLDY    71  67  87 E1        30.00S
ALBANY         CLEAR     75  72  90 SW5       30.04S
HUNTER AFB     PTCLDY    75  72  91 S5        30.00S
MOODY AFB      CLEAR     73  70  91 S5        30.03S
BRUNSWICK      PTCLDY    72  70  94 W3        30.03S


CITY           SKY/WX    TMP DP  RH WIND       PRES   REMARKS
BAINBRIDGE*    CLEAR     79  77  94 SW3       30.04R
MOULTRIE*      CLEAR     73  70  88 CALM      30.05S
VIDALIA*       CLEAR     72  66  83 SW3       30.02F
WAYCROSS*      CLEAR     74  71  91 CALM      30.04R
DOUGLAS*       CLEAR     73  70  88 SW5       30.05S
$$


USA.gov is the U.S. government's official web portal to all federal, state and local government web resources and services.